When you browse on this site, cookies collect data to enhance your experience and personalize the content and advertising you see.
Visit our Privacy Policy to learn more. By continuing to use the site, you agree to this use of cookies and data.
  • In France
  • List of Countries
  • For 7 days
  • Water Temperature
  • Weather Map
  • Weather Widgets
  • user-avatar
    Login

    Hourly Weather Manaus

    Today, 26 August, Monday

    Time Temperature Precipitation Wind Pressure Humidity
    00:00 +26°C° 0 mm 1 mps 755 mmHg 83%
    01:00 +24°C° 0 mm 0 mps 754 mmHg 84%
    02:00 +23°C° 0 mm 0 mps 754 mmHg 84%
    03:00 +23°C° 0 mm 0 mps 754 mmHg 85%
    04:00 +23°C° 0 mm 0 mps 754 mmHg 86%
    05:00 +25°C° 0 mm 1 mps 754 mmHg 87%
    06:00 +26°C° 0 mm 1 mps 755 mmHg 81%
    07:00 +28°C° 0 mm 1 mps 756 mmHg 76%
    08:00 +29°C° 0 mm 1 mps 756 mmHg 70%
    09:00 +31°C° 0 mm 1 mps 756 mmHg 61%
    10:00 +35°C° 0 mm 2 mps 756 mmHg 51%
    11:00 +37°C° 0 mm 2 mps 756 mmHg 41%
    12:00 +37°C° 0 mm 2 mps 755 mmHg 38%
    13:00 +38°C° 0 mm 2 mps 754 mmHg 35%
    14:00 +39°C° 0 mm 2 mps 753 mmHg 32%
    15:00 +38°C° 0 mm 2 mps 753 mmHg 35%
    16:00 +37°C° 0 mm 1 mps 752 mmHg 37%
    17:00 +36°C° 0 mm 1 mps 752 mmHg 40%
    18:00 +34°C° 0 mm 1 mps 752 mmHg 44%
    19:00 +32°C° 0 mm 1 mps 753 mmHg 47%
    20:00 +29°C° 0 mm 1 mps 753 mmHg 51%
    21:00 +29°C° 0 mm 1 mps 753 mmHg 51%
    22:00 +27°C° 0 mm 0 mps 754 mmHg 51%
    23:00 +26°C° 0 mm 0 mps 754 mmHg 51%

    Tomorrow, 27 August, Tuesday

    Time Temperature Precipitation Wind Pressure Humidity
    00:00 +26°C° 0 mm 0 mps 754 mmHg 52%
    01:00 +27°C° 0 mm 1 mps 754 mmHg 54%
    02:00 +27°C° 0 mm 1 mps 754 mmHg 56%
    03:00 +26°C° 0 mm 1 mps 754 mmHg 57%
    04:00 +26°C° 0 mm 1 mps 754 mmHg 58%
    05:00 +25°C° 0 mm 1 mps 754 mmHg 59%
    06:00 +27°C° 0 mm 1 mps 754 mmHg 56%
    07:00 +27°C° 0 mm 0 mps 755 mmHg 54%
    08:00 +28°C° 0 mm 0 mps 756 mmHg 52%
    09:00 +32°C° 0 mm 1 mps 756 mmHg 47%
    10:00 +34°C° 0 mm 1 mps 756 mmHg 42%
    11:00 +37°C° 0 mm 2 mps 755 mmHg 38%
    12:00 +38°C° 0 mm 2 mps 755 mmHg 36%
    13:00 +39°C° 0 mm 2 mps 754 mmHg 34%
    14:00 +40°C° 0 mm 2 mps 753 mmHg 32%
    15:00 +39°C° 0 mm 1 mps 752 mmHg 35%
    16:00 +37°C° 0 mm 1 mps 752 mmHg 39%
    17:00 +34°C° 0 mm 0 mps 751 mmHg 42%
    18:00 +32°C° 0 mm 0 mps 752 mmHg 46%
    19:00 +30°C° 0 mm 0 mps 752 mmHg 49%
    20:00 +28°C° 0 mm 0 mps 753 mmHg 53%
    21:00 +28°C° 0 mm 0 mps 753 mmHg 54%
    22:00 +27°C° 0 mm 0 mps 753 mmHg 55%
    23:00 +27°C° 0 mm 0 mps 753 mmHg 57%

    Day after tomorrow, 28 August, Wednesday

    Time Temperature Precipitation Wind Pressure Humidity
    00:00 +27°C° 0 mm 0 mps 753 mmHg 57%
    01:00 +27°C° 0 mm 0 mps 753 mmHg 57%
    02:00 +29°C° 0 mm 1 mps 753 mmHg 57%
    03:00 +26°C° 0 mm 0 mps 753 mmHg 58%
    04:00 +26°C° 0 mm 0 mps 753 mmHg 59%
    05:00 +25°C° 0 mm 0 mps 753 mmHg 60%
    06:00 +26°C° 0 mm 0 mps 754 mmHg 59%
    07:00 +27°C° 0 mm 0 mps 755 mmHg 58%
    08:00 +30°C° 0 mm 1 mps 755 mmHg 57%
    09:00 +32°C° 0 mm 1 mps 755 mmHg 50%
    10:00 +34°C° 0 mm 1 mps 755 mmHg 43%
    11:00 +37°C° 0 mm 1 mps 755 mmHg 35%
    12:00 +39°C° 0 mm 1 mps 754 mmHg 33%
    13:00 +40°C° 0 mm 1 mps 753 mmHg 31%
    14:00 +42°C° 0 mm 1 mps 752 mmHg 28%
    15:00 +40°C° 0 mm 1 mps 752 mmHg 32%
    16:00 +39°C° 0 mm 1 mps 751 mmHg 36%
    17:00 +36°C° 0 mm 1 mps 751 mmHg 39%
    18:00 +32°C° 0 mm 0 mps 751 mmHg 44%
    19:00 +30°C° 0 mm 0 mps 752 mmHg 48%
    20:00 +28°C° 0 mm 0 mps 752 mmHg 52%
    21:00 +28°C° 0 mm 0 mps 752 mmHg 53%
    22:00 +27°C° 0 mm 0 mps 753 mmHg 54%
    23:00 +27°C° 0 mm 0 mps 753 mmHg 55%

    29 August, Thursday

    Time Temperature Precipitation Wind Pressure Humidity
    00:00 +28°C° 0 mm 1 mps 752 mmHg 57%
    01:00 +28°C° 0 mm 1 mps 752 mmHg 59%
    02:00 +27°C° 0 mm 1 mps 752 mmHg 60%
    03:00 +27°C° 0 mm 1 mps 752 mmHg 62%
    04:00 +25°C° 0 mm 0 mps 752 mmHg 64%
    05:00 +24°C° 0 mm 0 mps 753 mmHg 65%
    06:00 +25°C° 0 mm 0 mps 753 mmHg 64%
    07:00 +28°C° 0 mm 1 mps 754 mmHg 63%
    08:00 +28°C° 0 mm 1 mps 754 mmHg 62%
    09:00 +31°C° 0 mm 1 mps 755 mmHg 56%
    10:00 +33°C° 0 mm 1 mps 755 mmHg 50%
    11:00 +35°C° 0 mm 1 mps 755 mmHg 43%
    12:00 +36°C° 0 mm 1 mps 754 mmHg 39%
    13:00 +39°C° 0 mm 1 mps 753 mmHg 35%
    14:00 +40°C° 0 mm 1 mps 752 mmHg 31%
    15:00 +39°C° 0 mm 1 mps 751 mmHg 34%
    16:00 +37°C° 0 mm 1 mps 751 mmHg 37%
    17:00 +37°C° 0 mm 1 mps 751 mmHg 39%
    18:00 +32°C° 0 mm 0 mps 751 mmHg 44%
    19:00 +30°C° 0 mm 0 mps 752 mmHg 48%
    20:00 +28°C° 0 mm 0 mps 752 mmHg 53%
    21:00 +29°C° 0 mm 1 mps 753 mmHg 55%
    22:00 +29°C° 0 mm 1 mps 753 mmHg 58%
    23:00 +28°C° 0 mm 1 mps 753 mmHg 60%

    30 August, Friday

    Time Temperature Precipitation Wind Pressure Humidity
    00:00 +28°C° 0 mm 1 mps 753 mmHg 61%
    01:00 +28°C° 0 mm 1 mps 752 mmHg 63%
    02:00 +28°C° 0 mm 1 mps 752 mmHg 64%
    03:00 +27°C° 0 mm 1 mps 752 mmHg 65%
    04:00 +27°C° 0 mm 1 mps 752 mmHg 67%
    05:00 +27°C° 0 mm 1 mps 752 mmHg 68%
    06:00 +28°C° 0 mm 1 mps 753 mmHg 65%
    07:00 +29°C° 0 mm 1 mps 754 mmHg 61%
    08:00 +31°C° 0 mm 2 mps 755 mmHg 57%
    09:00 +32°C° 0 mm 2 mps 755 mmHg 53%
    10:00 +34°C° 0 mm 1 mps 755 mmHg 48%
    11:00 +36°C° 0 mm 1 mps 755 mmHg 43%
    12:00 +36°C° 0.1 mm 1 mps 754 mmHg 44%
    13:00 +36°C° 0.1 mm 1 mps 753 mmHg 44%
    14:00 +34°C° 0.1 mm 0 mps 752 mmHg 44%
    15:00 +36°C° 0.1 mm 1 mps 752 mmHg 45%
    16:00 +35°C° 0.1 mm 1 mps 752 mmHg 46%
    17:00 +35°C° 0.1 mm 1 mps 751 mmHg 47%
    18:00 +33°C° 0 mm 1 mps 752 mmHg 52%
    19:00 +30°C° 0 mm 0 mps 752 mmHg 56%
    20:00 +28°C° 0 mm 0 mps 753 mmHg 61%
    21:00 +27°C° 0 mm 0 mps 753 mmHg 64%
    22:00 +28°C° 0 mm 1 mps 753 mmHg 67%
    23:00 +28°C° 0 mm 1 mps 753 mmHg 70%

    31 August, Saturday

    Time Temperature Precipitation Wind Pressure Humidity
    00:00 +27°C° 0 mm 1 mps 753 mmHg 71%
    01:00 +27°C° 0 mm 1 mps 752 mmHg 72%
    02:00 +25°C° 0 mm 0 mps 752 mmHg 73%
    03:00 +25°C° 0 mm 0 mps 752 mmHg 74%
    04:00 +24°C° 0 mm 0 mps 752 mmHg 75%
    05:00 +24°C° 0 mm 0 mps 752 mmHg 75%
    06:00 +28°C° 0 mm 1 mps 753 mmHg 71%
    07:00 +29°C° 0 mm 1 mps 754 mmHg 67%
    08:00 +30°C° 0 mm 2 mps 755 mmHg 62%
    09:00 +32°C° 0 mm 2 mps 755 mmHg 55%
    10:00 +36°C° 0 mm 2 mps 755 mmHg 48%
    11:00 +38°C° 0 mm 2 mps 754 mmHg 41%
    12:00 +38°C° 0 mm 2 mps 753 mmHg 38%
    13:00 +39°C° 0 mm 2 mps 752 mmHg 36%
    14:00 +40°C° 0 mm 2 mps 751 mmHg 34%
    15:00 +37°C° 0.1 mm 1 mps 751 mmHg 38%
    16:00 +36°C° 0.1 mm 1 mps 751 mmHg 42%
    17:00 +35°C° 0.1 mm 1 mps 751 mmHg 47%
    18:00 +33°C° 0.2 mm 1 mps 751 mmHg 55%
    19:00 +31°C° 0.2 mm 1 mps 751 mmHg 63%
    20:00 +27°C° 0.2 mm 0 mps 752 mmHg 70%
    21:00 +26°C° 0 mm 0 mps 752 mmHg 72%
    22:00 +28°C° 0 mm 1 mps 752 mmHg 75%
    23:00 +27°C° 0 mm 1 mps 753 mmHg 77%
    Show more